Date,TemperatureHighF,TemperatureAvgF,TemperatureLowF,DewpointHighF,DewpointAvgF,DewpointLowF,HumidityHigh,HumidityAvg,HumidityLow,PressureMaxIn,PressureMinIn,WindSpeedMaxMPH,WindSpeedAvgMPH,GustSpeedMaxMPH,PrecipitationSumIn
2013-9-1,84.6,73.3,67.5,72.9,69.2,66.0,98,88,66,29.96,29.81,5,2,8,0.00
2013-9-2,79.0,69.8,59.4,70.6,62.1,51.8,97,78,53,30.03,29.82,10,5,16,0.00
2013-9-3,76.5,64.1,56.1,57.6,54.3,51.8,97,72,47,30.13,30.01,8,4,12,0.00
2013-9-4,81.7,66.3,50.0,62.5,57.4,49.6,99,76,46,30.19,30.09,10,4,15,0.06
2013-9-5,74.5,62.7,52.2,62.3,52.6,45.7,96,73,39,30.35,30.18,6,2,10,0.00
2013-9-6,75.9,60.1,44.8,58.9,50.5,44.0,99,75,38,30.38,30.16,6,2,8,0.00
2013-9-7,83.3,67.4,54.0,71.7,62.4,53.1,99,85,56,30.16,29.99,6,1,12,0.04
2013-9-8,77.7,68.9,56.7,67.5,61.3,51.1,98,78,52,30.16,30.02,6,2,8,0.00
2013-9-9,79.2,62.3,25.9,73.1,60.4,21.1,99,94,80,30.17,29.88,7,2,11,0.21
2013-9-10,94.6,81.0,69.4,74.3,71.1,67.2,98,75,41,30.02,29.90,8,3,11,0.00
2013-9-11,92.7,78.1,69.4,74.2,70.1,66.5,98,78,52,30.04,29.91,10,2,21,0.07
2013-9-12,81.1,68.8,55.2,68.9,61.3,50.1,99,80,42,29.99,29.85,11,3,21,0.00
2013-9-13,62.2,53.8,41.9,50.2,46.0,41.6,99,76,54,30.13,29.98,8,3,14,0.00
2013-9-14,70.3,52.3,36.7,49.8,42.3,35.7,99,75,34,30.21,30.06,5,1,8,0.00
2013-9-15,64.4,54.2,44.2,55.7,50.7,43.7,99,89,62,30.13,27.10,5,1,7,0.05
2013-9-16,65.5,55.7,45.7,55.1,51.1,44.6,97,86,54,30.37,30.12,6,1,12,0.01
2013-9-17,70.3,51.5,35.6,54.6,44.5,33.4,99,80,33,30.42,30.20,7,2,11,0.00
2013-9-18,76.5,59.1,44.1,61.3,51.3,43.5,99,79,45,30.21,29.99,10,2,11,0.00
2013-9-19,79.9,67.6,56.7,69.7,63.7,56.4,99,88,67,30.08,29.86,8,3,14,0.00
2013-9-20,81.7,71.7,65.8,72.7,68.5,65.0,99,90,69,29.91,29.74,8,4,12,0.25
2013-9-21,70.0,62.5,55.2,65.2,55.4,45.6,99,79,45,29.89,29.69,11,4,19,0.01
2013-9-22,62.4,53.4,43.0,48.1,44.0,40.4,96,72,52,30.09,29.89,7,2,14,0.00
2013-9-23,65.1,49.4,38.7,51.4,43.8,38.4,99,84,51,30.20,30.09,5,1,8,0.00
2013-9-24,68.9,52.5,38.7,53.8,46.7,38.4,99,83,54,30.17,29.97,6,1,11,0.00
2013-9-25,46.6,44.1,41.7,46.3,43.6,41.5,99,98,97,30.02,29.99,0,0,0,0.00
2013-9-28,77.9,68.4,25.9,58.8,56.4,21.1,88,68,44,29.93,29.76,8,5,13,0.00
2013-9-29,63.1,60.5,58.1,62.3,58.0,53.7,99,92,76,29.90,29.84,6,2,8,0.12
2013-9-30,72.3,61.0,51.4,59.6,55.9,51.1,99,86,49,29.93,29.78,6,2,10,0.00